TimeEST,TemperatureF,Dew PointF,Humidity,Sea Level PressureIn,VisibilityMPH,Wind Direction,Wind SpeedMPH,Gust SpeedMPH,PrecipitationIn,Events,Conditions,WindDirDegrees,DateUTC
12:56 AM,19.0,6.1,57,30.32,10.0,NW,10.4,-,N/A,,Clear,320,2013-02-10 05:56:00
1:56 AM,19.0,5.0,54,30.34,10.0,NW,9.2,-,N/A,,Clear,320,2013-02-10 06:56:00
2:56 AM,18.0,5.0,57,30.35,10.0,NW,12.7,-,N/A,,Clear,320,2013-02-10 07:56:00
3:56 AM,17.1,3.9,56,30.36,10.0,NW,5.8,-,N/A,,Clear,320,2013-02-10 08:56:00
4:56 AM,16.0,5.0,62,30.37,10.0,NW,9.2,-,N/A,,Clear,320,2013-02-10 09:56:00
5:56 AM,17.1,3.9,56,30.38,10.0,NNW,11.5,-,N/A,,Clear,330,2013-02-10 10:56:00
6:56 AM,17.1,3.0,54,30.40,10.0,NNW,9.2,-,N/A,,Clear,340,2013-02-10 11:56:00
7:56 AM,18.0,5.0,57,30.43,10.0,NNW,5.8,-,N/A,,Clear,330,2013-02-10 12:56:00
8:56 AM,23.0,6.1,48,30.44,10.0,NNW,6.9,-,N/A,,Clear,340,2013-02-10 13:56:00
9:56 AM,26.1,5.0,41,30.47,10.0,NNW,8.1,-,N/A,,Clear,330,2013-02-10 14:56:00
10:56 AM,27.0,7.0,43,30.47,10.0,WNW,5.8,-,N/A,,Clear,300,2013-02-10 15:56:00
11:56 AM,30.0,5.0,35,30.46,10.0,North,4.6,-,N/A,,Clear,350,2013-02-10 16:56:00
12:56 PM,33.1,8.1,35,30.43,10.0,Calm,Calm,-,N/A,,Clear,0,2013-02-10 17:56:00
1:56 PM,33.1,9.0,37,30.42,10.0,WNW,3.5,-,N/A,,Clear,290,2013-02-10 18:56:00
2:56 PM,33.1,14.0,46,30.42,10.0,SW,3.5,-,N/A,,Clear,230,2013-02-10 19:56:00
3:56 PM,33.1,15.1,48,30.40,10.0,South,3.5,-,N/A,,Clear,190,2013-02-10 20:56:00
4:56 PM,28.9,17.1,61,30.40,10.0,South,3.5,-,N/A,,Clear,180,2013-02-10 21:56:00
5:56 PM,25.0,15.1,66,30.41,10.0,Calm,Calm,-,N/A,,Clear,0,2013-02-10 22:56:00
6:56 PM,21.0,12.0,68,30.42,10.0,Calm,Calm,-,N/A,,Clear,0,2013-02-10 23:56:00
7:56 PM,18.0,10.0,71,30.41,10.0,Calm,Calm,-,N/A,,Clear,0,2013-02-11 00:56:00
8:56 PM,16.0,10.0,77,30.41,10.0,Calm,Calm,-,N/A,,Clear,0,2013-02-11 01:56:00
9:56 PM,15.1,12.0,88,30.39,7.0,Calm,Calm,-,N/A,,Clear,0,2013-02-11 02:56:00
10:56 PM,16.0,12.0,84,30.38,6.0,Calm,Calm,-,N/A,,Clear,0,2013-02-11 03:56:00
11:56 PM,18.0,14.0,84,30.36,6.0,Calm,Calm,-,N/A,,Clear,0,2013-02-11 04:56:00